Skip Page Navigation
NASA JPL Caltech
NASA Logo - Jet Propulsion Laboratory + View the NASA Portal
+ Near-Earth Object (NEO) Program
Search JPL
JPL Home Earth Solar System Stars & Galaxies Technology
JPL Solar System Dynamics
BODIES ORBITS EPHEMERIDES TOOLS PHYSICAL DATA DISCOVERY FAQ SITE MAP
JPL Small-Body Database Browser
Search: [ help ]  
C/2009 F6 (Yi-SWAN)
Classification: Comet          SPK-ID: 1003019
Ephemeris | Orbit Diagram | Orbital Elements | Physical Parameters | Close-Approach Data ]

[ hide orbit diagram ]
Orbit Diagram
Note: Make sure you have Java enabled on your browser to see the applet. This applet is provided as a 3D orbit visualization tool. The applet was implemented using 2-body methods, and hence should not be used for determining accurate long-term trajectories (over several years or decades) or planetary encounter circumstances. For accurate long-term ephemerides, please instead use our Horizons system.
Orbit Viewer

Additional Notes: the orbits shown in the applet are color coded. The planets are white lines, and the asteroid/comet is a blue line. The bright white line indicates the portion of the orbit that is above the ecliptic plane, and the darker portion is below the ecliptic plane. Likewise for the asteroid/comet orbit, the light blue indicates the portion above the ecliptic plane, and the dark blue the portion below the ecliptic plane.

Orbit Viewer applet originally written and kindly provided by Osamu Ajiki (AstroArts), and further modified by Ron Baalke (JPL).


Orbital Elements at Epoch 2454975.5 (2009-May-24.0) TDB
Reference: JPL 27 (heliocentric ecliptic J2000)
 Element Value Uncertainty (1-sigma)   Units 
e .9975130482786373 3.5539e-06  
a 512.3377429699057 0.7323 AU
q 1.274159231798091 8.8882e-07 AU
i 85.76475709577342 3.3455e-05 deg
node 278.6789635518342 3.9272e-05 deg
peri 129.7722649400532 0.00010534 deg
M .001407987414279194 3.0265e-06 deg
tp 2454958.933558740357
(2009-May-07.43355874)
0.00011017 JED
period 4235775.684489803
11596.92
9081.5
24.86
d
yr
n 8.49903363197954E-5 1.8222e-07 deg/d
Q 1023.401326708013 1.4628 AU
  Orbit Determination Parameters
   # obs. used (total)      476  
   data-arc span      330 days  
   first obs. used      2009-04-06  
   last obs. used      2010-03-02  
   planetary ephem.      DE405  
   SB-pert. ephem.      SB405-CPV-2  
   fit RMS      .82291  
   data source      ORB  
   producer      Otto Matic  
   solution date      2011-Sep-14 21:22:50  

Additional Information
 Earth MOID = .504416 AU 
 T_jup = 0.113 
[ show covariance matrix ]

Ephemeris | Orbit Diagram | Orbital Elements | Physical Parameters | Close-Approach Data ]

Physical Parameter Table
Parameter Symbol Value Units Sigma Reference Notes
comet total magnitude M1 9.7 mag 1. 27 2 parameter fit from 80 observations, autocmod 2.5a
comet total magnitude slope K1 13.   n/a 27 autocmod 2.5a
comet nuclear magnitude M2 13.2 mag 1. 27 from 320 observations, autocmod 2.5a
comet nuclear magnitude slope K2 5.   n/a 27 autocmod 2.5a
comet nuclear phase coefficient PC 0.03   n/a 27 autocmod 2.5a

[ show close-approach data ]
Alternate Designations
 Perihelion 
Year
(est.)
 New-Style 
Desig
Roman
 Numeral 
Year/
 Letter 
 2009.3   C/2009 F6       
Ephemeris | Orbit Diagram | Orbital Elements | Physical Parameters | Close-Approach Data ]
ABOUT SSD CREDITS/AWARDS PRIVACY/COPYRIGHT GLOSSARY LINKS
FirstGov 2013-May-18 15:05 UT
(server date/time)  
NASA Home Page
Site Manager:   Donald K. Yeomans
Webmaster  Alan B. Chamberlin